This is the latest recevied weather packets stored in our database for station/object KB3GVC-13. If no packets are shown the sender has not sent any weather packets the latest 10 day(s).
| Time | Temp. | Humidity | Pressure | Rain* | Wind** | Luminosity | Snow |
|---|---|---|---|---|---|---|---|
| 1777903949 | 18.33° C | 46% | 1015.5 hPa | 0 mm | - | - | - |
| 1777903645 | 17.78° C | 49% | 1015.4 hPa | 0 mm | - | - | - |
| 1777903340 | 17.78° C | 48% | 1015.4 hPa | 0 mm | - | - | - |
| 1777903038 | 17.22° C | 49% | 1015.3 hPa | 0 mm | - | - | - |
| 1777902734 | 16.67° C | 50% | 1015.4 hPa | 0 mm | - | - | - |
| 1777902432 | 16.67° C | 51% | 1015.6 hPa | 0 mm | - | - | - |
| 1777902128 | 16.67° C | 52% | 1015.6 hPa | 0 mm | - | - | - |
| 1777901827 | 16.67° C | 53% | 1015.6 hPa | 0 mm | - | - | - |
| 1777901524 | 16.67° C | 54% | 1015.6 hPa | 0 mm | - | - | - |
| 1777901221 | 16.11° C | 55% | 1015.8 hPa | 0 mm | - | - | - |
| 1777900918 | 16.11° C | 57% | 1015.6 hPa | 0 mm | - | - | - |
| 1777900615 | 15.56° C | 56% | 1015.9 hPa | 0 mm | - | - | - |
| 1777900312 | 15.56° C | 58% | 1015.8 hPa | 0 mm | - | - | - |
| 1777900009 | 15.56° C | 58% | 1015.7 hPa | 0 mm | - | - | - |
| 1777899705 | 15° C | 61% | 1015.8 hPa | 0 mm | - | - | - |
| 1777899403 | 15° C | 63% | 1015.6 hPa | 0 mm | - | - | - |
| 1777899101 | 14.44° C | 63% | 1015.9 hPa | 0 mm | - | - | - |
| 1777898798 | 13.89° C | 64% | 1015.7 hPa | 0 mm | - | - | - |
| 1777898495 | 14.44° C | 64% | 1015.8 hPa | 0 mm | - | - | - |
| 1777898193 | 14.44° C | 66% | 1015.8 hPa | 0 mm | - | - | - |
| 1777897890 | 13.89° C | 69% | 1015.9 hPa | 0 mm | - | - | - |
| 1777897586 | 13.89° C | 69% | 1015.9 hPa | 0 mm | - | - | - |
| 1777897282 | 13.33° C | 70% | 1016 hPa | 0 mm | - | - | - |
| 1777896978 | 13.33° C | 71% | 1016 hPa | 0 mm | - | - | - |
| 1777896675 | 13.33° C | 72% | 1016.1 hPa | 0 mm | - | - | - |
* Rain latest hour (hover to see other rain measurements)
** Current wind speed in m/s (hover to see current wind gust speed)